Sobat POKER ONLINE - Agen DEWAPOKER Indonesia Terpercaya SOBAT POKER88

Jackpot

Texas Poker Multi Jackpot System

Kini Telah hadir Jackpot SUPER ROYAL FLUSH

Kini Telah hadir Jackpot 2000 (khusus table VIP keatas).

Ikutilah global jackpot yang tersedia di system kami, dengan system jackpot terbaru dan pertama di indonesia, anda dapat membeli jackpot dengan harga 100 rupiah saja dan menangkan hadiahnya hingga puluhan juta rupiah.

Jackpot bukanlah suatu keharusan untuk dibeli, namun kami memberikan suatu fitur tambahan untuk member tercinta dari www.sobatpoker88.net.

Terdapat tiga pilihan harga jackpot yang bisa anda beli yaitu :100,500,1000 dan 2000(khusus table VIP Keatas) rupiah.

Hadiah dari Multi jackpot system www.sobatpoker88.net

  1. full house x 10 harga jackpot yang anda beli.
      (contoh:anda membeli 1000 maka:1000 X10 = 10.000)
  2. four of kind x 250 harga jackpot yang anda beli
      (contoh:anda membeli 1000 maka:1000 X250 = 250.000)
  3. Straight flush x 1200
      (contoh:anda membeli 1000 maka:1000 X1200 = 1.200.000)
  4. Royal flush x 10000 harga jackpot yang anda beli
      (contoh:anda membeli 1000 maka:1000 X10000 = 10.000.000)
  5. SUPER ROYAL FLUSH x 30000 harga jackpot yang anda beli
      (contoh:anda membeli 1000 maka:1000 X30000 = 30.000.000)

Kondisi kartu

  1. full house adalah kondisi kartu dimana kartu anda dan kartu tengah dengan total 7 kartu bisa mendapatkan nilai 5 kartu dengan kombinasi 1 tris(three of kind) dan 1 pair, contoh 3 kartu 10 dan 2 kartu 5
  2. Four of kind adalah kondisi kartu dimana kartu anda dan kartu tengah dengan total 7 kartu bisa mendapatkan nilai 5 kartu dengan kombinasi 4 kartu yang sama jumlah dan 1 kartu apapun juga contoh anda mendapatkan 4 buah kartu angka 3 dan 1 kartu apapun.
  3. Staright flush adalah kondisi kartu dimana kartu anda dan kartu tengah dengan total 7 kartu bisa mendapatkan nilai 5 kartu dengan kombinasi seri / staright dengan kembang yang sama contoh : urutan kartu dari angka 5, 6, 7, 8 , 9 10 dengan kembang yg sama misalnya as hati
  4. Royal flush adalah kondisi kartu dimana kartu anda dan kartu tengah dengan total 7 kartu bisa mendapatkan nilai 5 kartu dengan kombinasi seri / staright dengan kembang yang sama tetapi kartu tersebut haruslah dimulai dari 10. contoh 10, Queen, Jack, King dan aces dengan kembang yang sama
  5. Super Royal flush adalah kondisi kartu dimana Kedua kartu anda digabung dengan 3 kartu pertama meja haruslah royal flush. contoh kartu anda 10,Queen kembang sama dan 3 kartu pertama meja adalah Jack, King dan aces dengan kembang yang sama

Demikian adalah penjelasan dari Multi Jackpot www.sobatpoker88.net terima kasih dan selamat bermain salam hoki dari kami

Texas Poker Jackpot Winner

TOP SUPER ROYAL FLUSH
No.TanggalNamaPriceWin
119/09 09:32VISUAL_88Super Royal flush30,000,000
219/09 04:30SEKELESuper Royal flush6,000,000
319/09 03:55E89695E9Super Royal flush6,000,000
419/09 03:47BANGS4Super Royal flush3,000,000
519/09 03:32MANAP994Super Royal flush6,000,000
TOP ROYAL FLUSH
No.TanggalNamaPriceWin
119/09 20:05PKRSRG103Royal flush1,000,000
219/09 20:05BC5PLPPXD0Royal flush10,000,000
319/09 20:01Z4YN4YRoyal flush20,000,000
419/09 19:51WELA3Royal flush5,000,000
519/09 19:48A17E4F38Royal flush1,000,000
TOP STRAIGHT FLUSH
No.TanggalNamaPriceWin
119/09 20:22ROBERTPLANStraight Flush600,000
219/09 20:22B40ARAM38978Straight Flush600,000
319/09 20:22ALFAD2012Straight Flush600,000
419/09 20:19HOKKI29Straight Flush1,200,000
519/09 20:18AYEN9888Straight Flush120,000
LATEST JACKPOT
No.TanggalNamaPriceWin
119/09 20:23ANDRIYAFull House5,000
219/09 20:23PLECOOL1Four Of A Kind25,000
319/09 20:23LEMBATA80Full House5,000
419/09 20:23RUYUI12Full House5,000
519/09 20:23BASOHONDAFull House5,000
619/09 20:23TEMPOK000Full House2,000
719/09 20:23OLATUKANFull House5,000
819/09 20:23WINATAFull House500
919/09 20:23D980F413Full House2,000
1019/09 20:23K4NCIN6Full House5,000
1119/09 20:23BELGILUFull House5,000
1219/09 20:23SERDADU24Full House10,000
1319/09 20:23ICAN101Full House2,000
1419/09 20:23LA_BOLD22Full House10,000
1519/09 20:23BODE3MFull House5,000
1619/09 20:23ZENOCFull House10,000
1719/09 20:22ROHI85Full House5,000
1819/09 20:22DZAQ29Full House10,000
1919/09 20:22ODLEFull House500
2019/09 20:22BVCKFour Of A Kind50,000
2119/09 20:22ROBERTPLANStraight Flush600,000
2219/09 20:22TORBER88Full House2,000
2319/09 20:22SCOOPY189Full House2,000
2419/09 20:22ASJOKER13Full House2,000
2519/09 20:22BUNGZUFour Of A Kind500,000
2619/09 20:22YURF160629Full House20,000
2719/09 20:22DUIT4INGFull House2,000
2819/09 20:22CENDANA27Four Of A Kind50,000
2919/09 20:22R1NAFull House2,000
3019/09 20:22SYAHRUJI34Full House1,000
3119/09 20:22WESTERLINGFull House20,000
3219/09 20:22NHYNHY99Full House5,000
3319/09 20:22KOOKIIKUUFull House10,000
3419/09 20:22THIENTAIFour Of A Kind50,000
3519/09 20:22FWO2JP3DPMFull House10,000
3619/09 20:22H0K1AAFull House5,000
3719/09 20:22ARHANUD212Full House5,000
3819/09 20:22MYBLACK8Full House2,000
3919/09 20:22TAKANA10Full House2,000
4019/09 20:22RIMBOPANTIFull House2,000
4119/09 20:22OJEGABRETFull House1,000
4219/09 20:22DEEBOY28Full House1,000
4319/09 20:22BELAI9999Full House2,000
4419/09 20:22SUNDOLFull House2,000
4519/09 20:22FRABU_24Full House2,000
4619/09 20:22WANHAR46Full House5,000
4719/09 20:22JOBLACK77Full House5,000
4819/09 20:22CIKIPONG72Full House10,000
4919/09 20:22DRAGONVVIPFull House1,000
5019/09 20:22G6UOJY7J7AFull House2,000

Domino Multi Jackpot System

Ikutilah global jackpot yang tersedia di system kami, dengan system jackpot terbaru dan pertama di indonesia, anda dapat membeli jackpot dengan harga 100 rupiah saja dan menangkan hadiahnya hingga puluhan juta rupiah.

Jackpot bukanlah suatu keharusan untuk dibeli, namun kami memberikan suatu fitur tambahan untuk member tercinta dari www.sobatpoker88.net.

Terdapat tiga pilihan harga jackpot yang bisa anda beli yaitu :100,500 dan 1000 rupiah.

Hadiah dari Multi jackpot system www.sobatpoker88.net

  1. Murni Kecil x 50 harga jackpot yang anda beli.
      (contoh:anda membeli 1000 maka:1000 X 50 = 50.000)
  2. Murni Besar x 50 harga jackpot yang anda beli
      (contoh:anda membeli 1000 maka:1000 X 50 = 50.000)
  3. BALAK x 100 harga jackpot yang anda beli
      (contoh:anda membeli 1000 maka:1000 X 100 = 100.000)
  4. ENAM DEWA x 6666 harga jackpot yang anda beli
      (contoh:anda membeli 1000 maka:1000 X 6666 = 6.666.000)

Demikian adalah penjelasan dari Multi Jackpot www.sobatpoker88.net terima kasih dan selamat bermain salam hoki dari kami

Domino Jackpot Winner

TOP ENAM DEWA
No.TanggalNamaPriceWin
119/09 19:49J33XP88Tmurni enam6,666,000
219/09 18:09RENGKIEmurni enam6,666,000
319/09 17:27N4TH4Nmurni enam3,333,000
419/09 16:51PETDON26murni enam6,666,000
519/09 15:54ANILAHSA16murni enam6,666,000
TOP BALAK
No.TanggalNamaPriceWin
119/09 20:22MARKUS08balak100,000
219/09 20:18OJAN69balak50,000
319/09 20:17UYU6NGbalak10,000
419/09 20:17NOV88balak50,000
519/09 20:14DN4DTHALIBbalak10,000
LATEST JACKPOT
No.TanggalNamaPriceWin
119/09 20:22KUMPUL1234murni kecil25,000
219/09 20:22IWAN880murni besar25,000
319/09 20:22DJ_ABLAYmurni kecil50,000
419/09 20:22C52EAIMUT694murni besar50,000
519/09 20:22MARKUS08balak100,000
619/09 20:21TOMYFINAmurni kecil5,000
719/09 20:21RAJAJUDI_murni kecil25,000
819/09 20:21RIZKYP90murni besar5,000
919/09 20:21B61NAKAJAIP449murni besar5,000
1019/09 20:21MILD231lucky9950,000
1119/09 20:20GONDEL06murni besar5,000
1219/09 20:19DEANSSSmurni besar50,000
1319/09 20:19ARYA133murni kecil25,000
1419/09 20:19JONI123456murni besar25,000
1519/09 20:19ABCDEFZmurni kecil5,000
1619/09 20:18JI3NK94murni besar25,000
1719/09 20:18RIPCURLTOmurni besar50,000
1819/09 20:18OJAN69balak50,000
1919/09 20:18ARDYAN1932lucky9950,000
2019/09 20:17UYU6NGbalak10,000
2119/09 20:17KYEU99lucky9910,000
2219/09 20:17KUNCUP9999murni kecil5,000
2319/09 20:17NOV88balak50,000
2419/09 20:16SFN87murni kecil50,000
2519/09 20:16HY10murni kecil50,000
2619/09 20:16BERLOZmurni kecil50,000
2719/09 20:15SONANTAmurni besar5,000
2819/09 20:15OLBOYYmurni kecil50,000
2919/09 20:14DN4DTHALIBbalak10,000
3019/09 20:139U21AOQIBDmurni kecil50,000
3119/09 20:13SARATAUNmurni besar5,000
3219/09 20:13SARAHFmurni kecil50,000
3319/09 20:13M3LU4K3Rmurni besar25,000
3419/09 20:13SIVIJEmurni kecil25,000
3519/09 20:12PONCAB04murni besar50,000
3619/09 20:12ARWAYmurni besar25,000
3719/09 20:12BOBOHOO007murni kecil5,000
3819/09 20:12PERNIKbalak100,000
3919/09 20:12KIRIPIK99murni besar50,000
4019/09 20:11CAPEK2121murni kecil25,000
4119/09 20:11B4LOU0UTK5lucky9950,000
4219/09 20:11IV4ND312lucky99350,000
4319/09 20:09D5KZLDIBPLmurni kecil50,000
4419/09 20:09AZOEbalak10,000
4519/09 20:09COIMAI8989murni besar25,000
4619/09 20:09S2AS67W0C6murni kecil50,000
4719/09 20:09FARISWONGmurni kecil25,000
4819/09 20:08SCHN3IDERmurni besar50,000
4919/09 20:08DWTGEPENGSbalak10,000
5019/09 20:08ASDQWEmurni besar25,000

Ceme Multi Jackpot System

Jackpot dilihat dari gabungan kartu pemain dengan kartu bandar. Bandar harus membeli jackpot sebanyak jumlah player yang sedang duduk. Sebagai contoh bila terdapat 3 pemain duduk bermain, dan bandar memutuskan untuk membeli jackpot Rp 1.000, maka pada periode tersebut bandar akan membeli jackpot sebanyak 3xRp1.000 = Rp3.000.

Jackpot bukanlah suatu keharusan untuk dibeli, namun kami memberikan suatu fitur tambahan untuk member tercinta dari www.sobatpoker88.net.

Terdapat tiga pilihan harga jackpot yang bisa anda beli yaitu :100,500 dan 1000 rupiah.

Hadiah dari Multi jackpot system www.sobatpoker88.net

  1. Murni Kecil x 50 harga jackpot yang anda beli.
      (contoh:anda membeli 1000 maka:1000 X 50 = 50.000)
  2. Murni Besar x 50 harga jackpot yang anda beli
      (contoh:anda membeli 1000 maka:1000 X 50 = 50.000)
  3. BALAK x 200 harga jackpot yang anda beli
      (contoh:anda membeli 1000 maka:1000 X 200 = 200.000)
  4. ENAM DEWA x 6666 harga jackpot yang anda beli
      (contoh:anda membeli 1000 maka:1000 X 6666 = 6.666.000)

Demikian adalah penjelasan dari Multi Jackpot www.sobatpoker88.net terima kasih dan selamat bermain salam hoki dari kami

Ceme Jackpot Winner

TOP ENAM DEWA
No.TanggalNamaPriceWin
119/09 20:13TANAKBIDmurni enam6,666,000
219/09 20:13FANSA99murni enam6,666,000
319/09 19:45GLOORY66murni enam6,666,000
419/09 19:45DUDY86murni enam6,666,000
519/09 19:45TOKE54murni enam3,333,000
TOP BALAK
No.TanggalNamaPriceWin
119/09 20:23LB995220balak100,000
219/09 20:23BADU11Abalak100,000
319/09 20:23MINO08balak20,000
419/09 20:23IRUPbalak100,000
519/09 20:23AAPATONIbalak200,000
LATEST JACKPOT
No.TanggalNamaPriceWin
119/09 20:23LB995220balak100,000
219/09 20:23BADU11Abalak100,000
319/09 20:23JONEPSONGmurni kecil5,000
419/09 20:23JANCUK89murni kecil5,000
519/09 20:23YBYVAMVVXDmurni kecil50,000
619/09 20:23MINO08balak20,000
719/09 20:23IRUPbalak100,000
819/09 20:23AAPATONIbalak200,000
919/09 20:23WILDANSYAHbalak200,000
1019/09 20:23B7E97C57balak200,000
1119/09 20:23HAYATI889murni kecil50,000
1219/09 20:22Q4PFPSRI33murni kecil25,000
1319/09 20:22DISA07murni kecil25,000
1419/09 20:22GAYUNG8888murni besar50,000
1519/09 20:22MODULAPR48murni besar50,000
1619/09 20:22VRPRTAYBKZmurni kecil25,000
1719/09 20:22SRTLYANPINKmurni kecil25,000
1819/09 20:22ARFAN147murni kecil25,000
1919/09 20:22JAMILA50murni kecil5,000
2019/09 20:22LUX220894murni kecil50,000
2119/09 20:22VINOX3murni kecil50,000
2219/09 20:22ZODIAX22murni kecil50,000
2319/09 20:22NUR8355murni kecil50,000
2419/09 20:22OLLEOXSmurni kecil25,000
2519/09 20:22NACHO5656murni besar5,000
2619/09 20:22NEO5Abalak100,000
2719/09 20:22MBAHBEK666murni kecil50,000
2819/09 20:22F4TUR0murni kecil5,000
2919/09 20:22SLAMETABDUmurni kecil50,000
3019/09 20:22ITEM84murni besar25,000
3119/09 20:22KHAJANmurni besar5,000
3219/09 20:21KAILA86balak200,000
3319/09 20:21VQKJPFGTIIbalak200,000
3419/09 20:21ALI779murni kecil50,000
3519/09 20:21YULIUS17murni besar50,000
3619/09 20:21BP889506murni besar5,000
3719/09 20:21SHOEImurni kecil5,000
3819/09 20:21BTRANDKmurni kecil25,000
3919/09 20:21C50SIGIT652balak200,000
4019/09 20:21PKTIAM146balak20,000
4119/09 20:21C50SIGIT652balak200,000
4219/09 20:21VRPRTAYBKZmurni kecil5,000
4319/09 20:21VRPRTAYBKZbalak20,000
4419/09 20:21F5E73C59murni kecil5,000
4519/09 20:21SUZUKI9999murni besar50,000
4619/09 20:21ADSX07murni kecil50,000
4719/09 20:21ARFI_71murni kecil25,000
4819/09 20:21ARSENAL1011murni kecil50,000
4919/09 20:21GLOORY66murni besar50,000
5019/09 20:21ORAKARIKbalak200,000